, AK

(GMT )
Eureka

Weather History for PAZK - November, 2013

Change the Weather History Date:

Friday, November 8, 2013

  Actual Average Record
Temperature  
Mean Temperature 4 °F -  
Max Temperature 8 °F 14 °F 30 °F (2002)
Min Temperature 1 °F 6 °F -11 °F (2006)
Degree Days  
Heating Degree Days 60    
Moisture  
Dew Point 4 °F    
Average Humidity 91    
Maximum Humidity 100    
Minimum Humidity 78    
Precipitation  
Precipitation 0.00 in - - ()
Sea Level Pressure  
Sea Level Pressure 29.91 in    
Wind  
Wind Speed 3 mph (ENE)    
Max Wind Speed 7 mph    
Max Gust Speed -    
Visibility 3 miles    
Events      
Averages and records for this station are not official NWS values.
T = Trace of Precipitation, MM = Missing Value Source: NWS Daily Summary

Daily Weather History Graph

Daily Weather History Graph

Search for Another Location

Airport or City:

Trip Planner

Search our weather history database for the weather conditions in past years. The results will help you decide how hot, cold, wet, or windy it might be!

Date:

Astronomy

Nov. 08, 2013 Rise Set
Actual Time 8:41 AM AKST 4:22 PM AKST
Civil Twilight 7:50 AM AKST 5:13 PM AKST
Nautical Twilight 6:56 AM AKST 6:07 PM AKST
Astronomical Twilight 6:04 AM AKST 6:59 PM AKST
Moon 1:41 PM AKST (11/8) 10:03 PM AKST (11/8)
Length of Visible Light 9h 23m
Length of Day
7h 41m
Waxing Crescent, 34% of the Moon is Illuminated
Nov 8
Waxing Crescent
Nov 9
First Quarter
Nov 17
Full
Nov 25
Last Quarter
Dec 2
New

Hourly Weather History & Observations

Time (AKST) Temp. Windchill Dew Point Humidity Pressure Visibility Wind Dir Wind Speed Gust Speed Precip Events Conditions
12:16 AM 8.6 °F 0.1 °F 6.8 °F 92% 29.75 in 2.0 mi NE 4.6 mph - N/A   Overcast
12:36 AM 8.6 °F 0.1 °F 6.8 °F 92% 29.75 in 3.0 mi NNE 4.6 mph - N/A   Overcast
12:56 AM 8.6 °F 2.0 °F 6.8 °F 92% 29.75 in 2.5 mi ENE 3.5 mph - N/A   Overcast
1:16 AM 8.6 °F 0.1 °F 6.8 °F 92% 29.76 in 2.5 mi ENE 4.6 mph - N/A   Overcast
1:36 AM 8.6 °F 0.1 °F 6.8 °F 92% 29.76 in 1.0 mi ENE 4.6 mph - N/A   Overcast
1:56 AM 8.6 °F 2.0 °F 6.8 °F 92% 29.76 in 0.8 mi ENE 3.5 mph - N/A   Overcast
2:16 AM 8.6 °F 0.1 °F 6.8 °F 92% 29.77 in 1.0 mi East 4.6 mph - N/A   Overcast
2:36 AM 8.6 °F - 6.8 °F 92% 29.77 in 1.8 mi Calm Calm - N/A   Overcast
2:56 AM 8.6 °F - 5.0 °F 85% 29.78 in 1.8 mi Calm Calm - N/A   Overcast
3:16 AM 8.6 °F 0.1 °F 5.0 °F 85% 29.79 in 1.0 mi ENE 4.6 mph - N/A   Overcast
3:36 AM 8.6 °F 0.1 °F 5.0 °F 85% 29.79 in 1.2 mi ENE 4.6 mph - N/A   Overcast
3:56 AM 6.8 °F -0.1 °F 5.0 °F 92% 29.79 in 1.2 mi ENE 3.5 mph - N/A   Overcast
4:16 AM 6.8 °F - 5.0 °F 92% 29.79 in 1.0 mi Calm Calm - N/A   Overcast
4:36 AM 6.8 °F - 5.0 °F 92% 29.80 in 2.0 mi Calm Calm - N/A   Overcast
4:56 AM 6.8 °F - 5.0 °F 92% 29.81 in 1.5 mi Calm Calm - N/A   Overcast
5:16 AM 6.8 °F - 1.4 °F 79% 29.81 in 8.0 mi Calm Calm - N/A   Overcast
5:36 AM 6.8 °F - 3.2 °F 85% 29.81 in 0.5 mi Calm Calm - N/A   Overcast
5:56 AM 6.8 °F - 3.2 °F 85% 29.82 in 0.8 mi Calm Calm - N/A   Overcast
6:16 AM 5.0 °F - 1.4 °F 85% 29.83 in 0.5 mi Calm Calm - N/A   Overcast
6:36 AM 5.0 °F - 1.4 °F 85% 29.84 in 0.8 mi Calm Calm - N/A   Overcast
6:56 AM 5.0 °F - 3.2 °F 92% 29.84 in 0.8 mi Calm Calm - N/A   Overcast
7:16 AM 5.0 °F - 3.2 °F 92% 29.85 in 0.8 mi Calm Calm - N/A   Overcast
7:36 AM 3.2 °F - 1.4 °F 92% 29.85 in 0.8 mi Calm Calm - N/A   Overcast
7:56 AM 3.2 °F - 1.4 °F 92% 29.86 in 0.5 mi Calm Calm - N/A   Overcast
8:16 AM 3.2 °F - -0.4 °F 85% 29.87 in 0.5 mi Calm Calm - N/A   Overcast
8:36 AM 1.4 °F -6.2 °F -0.4 °F 92% 29.87 in 0.2 mi ENE 3.5 mph - N/A   Overcast
8:56 AM 3.2 °F -4.2 °F 1.4 °F 92% 29.88 in 0.2 mi NE 3.5 mph - N/A   Overcast
9:16 AM 3.2 °F -4.2 °F 1.4 °F 92% 29.89 in 0.2 mi ENE 3.5 mph - N/A   Overcast
9:36 AM 3.2 °F - 1.4 °F 92% 29.89 in 0.2 mi Calm Calm - N/A   Overcast
9:56 AM 1.4 °F - -0.4 °F 92% 29.90 in 0.8 mi Calm Calm - N/A   Overcast
10:16 AM 3.2 °F - 1.4 °F 92% 29.91 in 0.5 mi Calm Calm - N/A   Overcast
10:36 AM 3.2 °F -4.2 °F 3.2 °F 100% 29.91 in 0.8 mi NE 3.5 mph - N/A   Overcast
10:56 AM 5.0 °F -6.9 °F 3.2 °F 92% 29.91 in 0.5 mi NE 6.9 mph - N/A   Overcast
11:16 AM 5.0 °F -4.1 °F 3.2 °F 92% 29.92 in 1.0 mi NE 4.6 mph - N/A   Overcast
11:36 AM 6.8 °F -0.1 °F 3.2 °F 85% 29.92 in 1.0 mi ENE 3.5 mph - N/A   Overcast
11:56 AM 6.8 °F -0.1 °F 5.0 °F 92% 29.92 in 2.0 mi ENE 3.5 mph - N/A   Overcast
12:16 PM 6.8 °F - 6.8 °F 100% 29.93 in 10.0 mi Calm Calm - N/A   Partly Cloudy
12:36 PM 6.8 °F -0.1 °F 5.0 °F 92% 29.93 in 10.0 mi East 3.5 mph - N/A   Clear
12:56 PM 6.8 °F - 6.8 °F 100% 29.94 in 10.0 mi Calm Calm - N/A   Clear
1:16 PM 6.8 °F -0.1 °F 6.8 °F 100% 29.94 in 10.0 mi ENE 3.5 mph - N/A   Clear
1:36 PM 8.6 °F - 6.8 °F 92% 29.95 in 5.0 mi Calm Calm - N/A   Clear
1:56 PM 8.6 °F 2.0 °F 6.8 °F 92% 29.95 in 10.0 mi ENE 3.5 mph - N/A   Clear
2:16 PM 8.6 °F - 6.8 °F 92% 29.97 in 10.0 mi Calm Calm - N/A   Clear
2:36 PM 8.6 °F - 6.8 °F 92% 29.97 in 10.0 mi Calm Calm - N/A   Clear
2:56 PM 6.8 °F - 5.0 °F 92% 29.99 in 10.0 mi Calm Calm - N/A   Clear
3:16 PM 6.8 °F - 5.0 °F 92% 29.98 in 10.0 mi Calm Calm - N/A   Clear
3:36 PM 6.8 °F - 3.2 °F 85% 29.97 in 10.0 mi Calm Calm - N/A   Clear
3:56 PM 5.0 °F - 1.4 °F 85% 29.98 in 10.0 mi Calm Calm - N/A   Clear
4:16 PM 5.0 °F - 1.4 °F 85% 29.97 in 10.0 mi Calm Calm - N/A   Clear
4:36 PM 5.0 °F - 1.4 °F 85% 29.97 in 10.0 mi Calm Calm - N/A   Clear
4:56 PM 3.2 °F - -0.4 °F 85% 29.98 in 10.0 mi Calm Calm - N/A   Clear
5:16 PM 3.2 °F -4.2 °F -0.4 °F 85% 29.99 in 10.0 mi SSE 3.5 mph - N/A   Clear
5:36 PM 5.0 °F - 5.0 °F 100% 29.99 in 10.0 mi Calm Calm - N/A   Clear
5:56 PM 1.4 °F - -4.0 °F 78% 30.00 in 10.0 mi Calm Calm - N/A   Clear
6:16 PM 3.2 °F -6.2 °F 3.2 °F 100% 30.00 in 10.0 mi NE 4.6 mph - N/A   Clear
6:36 PM 1.4 °F -9.9 °F -0.4 °F 92% 30.01 in 10.0 mi NE 5.8 mph - N/A   Clear
6:56 PM 1.4 °F -9.9 °F -0.4 °F 92% 30.01 in 0.2 mi NE 5.8 mph - N/A   Overcast
7:16 PM 5.0 °F -6.9 °F 3.2 °F 92% 30.02 in 0.2 mi NE 6.9 mph - N/A   Overcast
7:36 PM 6.8 °F -3.5 °F 3.2 °F 85% 30.02 in 0.2 mi NE 5.8 mph - N/A   Overcast
7:56 PM 6.8 °F -2.0 °F 5.0 °F 92% 30.02 in 0.2 mi NE 4.6 mph - N/A   Overcast
8:16 PM 6.8 °F -2.0 °F 5.0 °F 92% 30.03 in 0.2 mi ENE 4.6 mph - N/A   Overcast
8:36 PM 6.8 °F -2.0 °F 6.8 °F 100% 30.02 in 0.5 mi ENE 4.6 mph - N/A   Overcast
8:56 PM 6.8 °F -2.0 °F 5.0 °F 92% 30.02 in 0.5 mi ENE 4.6 mph - N/A   Overcast
9:16 PM 6.8 °F -3.5 °F 5.0 °F 92% 30.02 in 0.2 mi ENE 5.8 mph - N/A   Overcast
9:36 PM 6.8 °F -2.0 °F 5.0 °F 92% 30.02 in 0.2 mi NE 4.6 mph - N/A   Overcast
9:56 PM 6.8 °F -0.1 °F 5.0 °F 92% 30.03 in 0.2 mi NE 3.5 mph - N/A   Overcast
10:16 PM 6.8 °F -2.0 °F 3.2 °F 85% 30.03 in 0.2 mi ENE 4.6 mph - N/A   Overcast
10:36 PM 6.8 °F -2.0 °F 5.0 °F 92% 30.03 in 0.2 mi ENE 4.6 mph - N/A   Overcast
10:56 PM 6.8 °F -2.0 °F 5.0 °F 92% 30.04 in 0.5 mi ENE 4.6 mph - N/A   Overcast
11:16 PM 6.8 °F - 5.0 °F 92% 30.04 in 0.5 mi Calm Calm - N/A   Overcast
11:36 PM 6.8 °F - 3.2 °F 85% 30.06 in 0.5 mi Calm Calm - N/A   Overcast
11:56 PM 6.8 °F - 3.2 °F 85% 30.06 in 0.5 mi Calm Calm - N/A   Overcast